This demonstration page uses our WeatherBlox Daily Observations layout. Learn more.

Left ArrowRight Arrow

34.16533, -84.80231

Hourly Observations for July 17, 2017

Temp ( °F °C ) Dew Point ( °F °C ) Humidity (%) Winds ( mph kmh ) Pressure ( in mb ) Visibility ( mi km ) Precip ( " mm )
12:53 am 00:53 Mostly Cloudy 73 22.8 73 22.8 100 100 SE 3 6 29.95 1014 9 14 0.00 0.00
1:53 am 01:53 Partly Cloudy 74 23.3 74 23.3 100 100 NE 3 6 29.95 1014 10 16 0.00 0.00
2:27 am 02:27 Mostly Cloudy 73 22.8 70 21.1 90 90 E 10 17 30.00 1016 10 16 0.00 0.00
2:53 am 02:53 Cloudy with Strong Thunderstorms 71 21.7 68 20 90 90 E 8 13 29.98 1015 3 4 0.22 5.59
2:58 am 02:58 Cloudy with Heavy Rain 69 20.6 69 20.6 100 100 E 7 11 30.03 1017 1 2 0.26 6.60
3:06 am 03:06 Cloudy with Strong Thunderstorms 68 20 68 20 100 100 VRB 3 6 30.03 1017 2 2 0.37 9.40
3:10 am 03:10 Cloudy with Thunderstorms 68 20 68 20 100 100 VRB 3 6 30.03 1017 3 4 0.38 9.65
3:17 am 03:17 Cloudy with Thunderstorms 68 20 68 20 100 100 ESE 6 9 30.03 1017 5 8 0.39 9.91
3:25 am 03:25 Cloudy with Rain 68 20 68 20 100 100 Calm 30.00 1016 5 8 0.41 10.41
3:53 am 03:53 Cloudy with Light Rain 68 20 68 20 100 100 SSE 6 9 29.96 1015 10 16 0.47 11.94
4:53 am 04:53 Clear 67 19.4 67 19.4 100 100 Calm 29.96 1014 10 16 0.00 0.03
5:53 am 05:53 Clear 67 19.4 67 19.4 100 100 Calm 29.97 1015 10 16 0.00 0.00
6:37 am 06:37 Partly Cloudy 67 19.4 67 19.4 100 100 S 3 6 30.03 1017 9 14 0.00 0.00
6:53 am 06:53 Mostly Cloudy 67 19.4 67 19.4 100 100 SE 3 6 29.99 1016 8 13 0.00 0.00
7:02 am 07:02 Partly Cloudy 66 18.9 66 18.9 100 100 SE 3 6 30.03 1017 10 16 0.00 0.00
7:53 am 07:53 Mostly Sunny 69 20.6 69 20.6 100 100 Calm 30.00 1016 10 16 0.00 0.00
8:44 am 08:44 Mostly Cloudy 71 21.7 71 21.7 100 100 Calm 30.03 1017 10 16 0.00 0.00
8:53 am 08:53 Cloudy 72 22.2 71 21.7 97 97 Calm 30.02 1017 10 16 0.00 0.00
9:53 am 09:53 Cloudy 74 23.3 71 21.7 91 91 Calm 30.02 1017 10 16 0.00 0.00
10:53 am 10:53 Cloudy 76 24.4 72 22.2 88 88 ESE 3 6 30.01 1016 10 16 0.00 0.00
11:53 am 11:53 Cloudy 79 26.1 73 22.8 82 82 Calm 30.01 1016 10 16 0.00 0.00
12:53 pm 12:53 Cloudy 80 26.7 73 22.8 79 79 VRB 3 6 30.01 1016 10 16 0.00 0.00
1:53 pm 13:53 Cloudy 82 27.8 74 23.3 77 77 NNW 6 9 30.00 1016 10 16 0.00 0.00
2:14 pm 14:14 Partly Cloudy 84 28.9 73 22.8 70 70 Calm 30.00 1016 10 16 0.00 0.00
2:53 pm 14:53 Mostly Sunny 85 29.4 73 22.8 68 68 Calm 29.98 1015 10 16 0.00 0.00
3:53 pm 15:53 Sunny 86 30 72 22.2 63 63 Calm 29.95 1014 10 16 0.00 0.00
4:53 pm 16:53 Sunny 87 30.6 74 23.3 65 65 Calm 29.95 1014 10 16 0.00 0.00
5:53 pm 17:53 Sunny 85 29.4 73 22.8 68 68 Calm 29.95 1014 10 16 0.00 0.00
6:53 pm 18:53 Sunny 83 28.3 79 26.1 88 88 Calm 29.96 1014 10 16 0.00 0.00
7:53 pm 19:53 Cloudy 81 27.2 79 26.1 94 94 ESE 9 15 29.98 1015 9 14 0.00 0.00
8:53 pm 20:53 Mostly Clear 76 24.4 71 21.7 85 85 Calm 29.99 1016 10 16 0.00 0.00
9:53 pm 21:53 Clear 72 22.2 70 21.1 94 94 Calm 30.01 1016 10 16 0.00 0.00
10:53 pm 22:53 Clear 70 21.1 70 21.1 100 100 Calm 30.02 1017 10 16 0.00 0.00
11:53 pm 23:53 Partly Cloudy 70 21.1 69 20.6 97 97 Calm 30.03 1017 10 16 0.00 0.00

Powered by AerisWeather